Current weather by "City, St" or "zip code"  
 

Current Conditions: Edgar County Airport, IL

Fair


55.0 F

Last Updated on Sep 18 2020, 12:55 am CDT
Humidity: 79%
Wind Speed: mph
Barometer 30.15 in
Dewpoint: 49.1 F
Visibility: 10.00 mi
Precip: --
Heat Index: NA
Wind Chill: NA
Current conditions at:

Edgar County Airport, IL (KPRG)

Lat: 39.69817 Lon: 87.6669

Local Radar Image active severe weather and emergency alerts image image weather storm and storm spotter reports image weather observation monitoring service image
Local
Radar
Active
Alerts
Storm Reports Obs
Monitoring

Sign-up For Email & Text Message Weather Alert Notification Services



Advertise Here

Observation History for Edgar County Airport, IL


Time Wind
(mph)
Vis
(mi)
Weather Precip (in) Temperature (F) Relative
Humidity
Wind
Chill
(F)
Heat
Index
(F)
Pressure
Air Dwpt altimeter
(in)
sea level
(mb)
Rmks
12:55 am CDT 10.00 Fair -- 55.0 49.1 79% NA NA 30.15 M
11:55 pm CDT 10.00 Fair -- 56.0 49.1 76% NA NA 30.15 M
10:55 pm CDT 10.00 Partly Cloudy -- 58.0 49.1 71% NA NA 30.14 M
9:55 pm CDT 10.00 Fair -- 61.0 50.4 68% NA NA 30.13 M
8:55 pm CDT 10.00 Fair -- 64.0 52.0 65% NA NA 30.11 M
7:55 pm CDT 10.00 Mostly Cloudy -- 68.0 56.1 67% NA NA 30.08 M
6:55 pm CDT 10.00 Fair -- 69.0 60.3 74% NA NA 30.05 M
5:55 pm CDT 10.00 Partly Cloudy -- 74.0 59.9 62% NA NA 30.05 M
4:55 pm CDT 10.00 Overcast -- 75.0 60.8 61% NA NA 30.04 M
3:55 pm CDT 10.00 Overcast -- 76.0 61.5 61% NA NA 30.04 M
2:55 pm CDT 10.00 Overcast -- 78.0 62.2 59% NA NA 30.04 M
1:55 pm CDT 10.00 Mostly Cloudy -- 78.0 62.8 61% NA NA 30.05 M
12:55 pm CDT 10.00 Mostly Cloudy -- 79.0 63.3 58% NA NA 30.06 M
11:55 am CDT 10.00 Overcast -- 75.0 63.9 68% NA NA 30.07 M
10:55 am CDT 10.00 Mostly Cloudy -- 73.0 63.5 71% NA NA 30.07 M
9:55 am CDT 10.00 Overcast -- 72.0 63.0 74% NA NA 30.05 M
8:55 am CDT 10.00 Fair -- 67.0 61.3 82% NA NA 30.05 M
7:55 am CDT 10.00 Fair -- 59.0 56.3 91% NA NA 30.04 M
6:55 am CDT 10.00 Partly Cloudy -- 54.0 52.7 96% NA NA 30.03 M
5:55 am CDT 10.00 Fair -- 53.0 51.6 96% NA NA 30.02 M
5:35 am CDT 10.00 Fair -- 53.0 51.6 96% NA NA 30.02 M
4:55 am CDT 10.00 Fair -- 54.0 52.0 94% NA NA 30.02 M
3:55 am CDT 10.00 Fair -- 54.0 52.5 95% NA NA 30.02 M
2:55 am CDT 10.00 Fair -- 54.0 52.0 94% NA NA 30.02 M

Regional Weather Observation


Danville, Vermilion County Airport, IL (KDNV)

Fair
53.0 F

University of Illinois - Willard, IL (KCMI)

Fair
56.0 F

Terre Haute Regional Airport, IN (KHUF)

Fair
57.0 F

Mattoon / Charleston, Coles County Memorial Airport, IL (KMTO)

Fair
53.0 F

Rantoul National Aviation Center Airport, IL (KTIP)

Fair
54.0 F

Decatur Airport, IL (KDEC)

Fair
51.0 F